SAULDORF Weather Reports


Display with metric or nautical units.
time (UTC)temp
F
wind
direction
speed
MPH
gust
MPH
rain 1hr
in
rain 24hr
in
rain mn
in
humidity
%
barometer
mb
20260507150210 59 313 11.0 0.0 0.00 0.00 0.17 67 1014.5
20260507143212 59 42 9.0 0.0 0.00 0.00 0.17 72 1014.4
20260507140210 57 13 9.0 0.0 0.00 0.00 0.17 78 1014.5
20260507133210 56 30 9.0 0.0 0.00 0.00 0.17 83 1014.7
20260507130210 54 315 11.0 0.0 0.00 0.00 0.17 90 1014.7
20260507123210 53 321 7.0 0.0 0.00 0.00 0.17 89 1014.8
20260507120211 52 340 9.0 0.0 0.00 0.00 0.17 92 1014.5
20260507113210 50 279 7.0 0.0 0.00 0.00 0.17 91 1014.6
20260507110210 51 286 5.0 0.0 0.00 0.00 0.15 88 1014.6
20260507103216 52 225 10.0 0.0 0.00 0.00 0.06 89 1014.4
20260507100212 50 199 6.0 0.0 0.00 0.00 0.06 91 1014.4
20260507093211 50 211 9.0 0.0 0.00 0.00 0.06 88 1014.2
20260507090211 51 232 11.0 0.0 0.00 0.00 0.06 89 1013.9
20260507083212 50 223 10.0 0.0 0.00 0.00 0.06 93 1013.8
20260507080211 49 217 14.0 0.0 0.00 0.00 0.06 96 1013.6
20260507073212 48 247 13.0 0.0 0.00 0.00 0.06 97 1013.5
20260507070212 47 223 12.0 0.0 0.00 0.00 0.06 97 1013.3
20260507063211 46 236 14.0 0.0 0.00 0.00 0.06 97 1013.2
20260507060211 45 230 14.0 0.0 0.00 0.00 0.05 97 1012.9
20260507053211 45 229 13.0 0.0 0.00 0.00 0.05 97 1012.6
20260507050213 44 228 12.0 0.0 0.00 0.00 0.04 97 1012.2
20260507043211 44 237 13.0 0.0 0.00 0.00 0.02 97 1012.0
20260507040216 44 268 11.0 0.0 0.00 0.00 0.00 97 1011.7
20260507033211 44 241 14.0 0.0 0.00 0.00 0.00 96 1011.5
20260507030211 44 220 11.0 0.0 0.00 0.00 0.00 96 1011.5
20260507023211 44 215 11.0 0.0 0.00 0.00 0.00 96 1011.2
20260507020211 44 240 13.0 0.0 0.00 0.00 0.00 96 1011.0
20260507013212 43 236 8.0 0.0 0.00 0.00 0.00 96 1011.2
20260507010211 42 211 7.0 0.0 0.00 0.00 0.00 95 1011.0
20260507003209 42 214 6.0 0.0 0.00 0.00 0.00 95 1010.8
20260507000209 43 227 9.0 0.0 0.00 0.00 0.00 94 1010.7
20260506233209 44 247 12.0 0.0 0.00 0.00 0.00 95 1010.5
20260506230209 44 236 11.0 0.0 0.00 0.00 0.00 95 1010.5
20260506223209 44 234 10.0 0.0 0.00 0.00 0.00 95 1010.4
20260506220209 45 253 11.0 0.0 0.00 0.00 0.00 95 1010.1
20260506213209 45 221 6.0 0.0 0.00 0.00 0.29 95 1010.3
20260506210210 45 240 13.0 0.0 0.00 0.00 0.29 94 1010.2
20260506203210 46 244 15.0 0.0 0.00 0.00 0.29 94 1009.8
20260506200210 47 225 12.0 0.0 0.00 0.00 0.29 94 1010.0
20260506193215 46 223 15.0 0.0 0.00 0.00 0.29 93 1009.7
20260506190211 47 217 15.0 0.0 0.00 0.00 0.29 92 1009.2
20260506183209 47 221 15.0 0.0 0.00 0.00 0.29 90 1008.9
20260506180216 47 262 15.0 0.0 0.00 0.00 0.29 90 1008.7
20260506173210 48 244 20.0 0.0 0.00 0.00 0.29 90 1008.2
20260506170215 50 221 12.0 0.0 0.00 0.00 0.29 93 1007.7
20260506163210 49 240 15.0 0.0 0.00 0.00 0.29 94 1007.8
20260506160210 48 248 16.0 0.0 0.00 0.00 0.29 94 1007.7
20260506153210 48 240 12.0 0.0 0.00 0.00 0.28 94 1007.8